Tracking 27419 objects as of 9-Jun-2023
HD Live streaming from Space Station
objects crossing your sky now

ATLAS 5 CENTAUR DEB

Track ATLAS 5 CENTAUR DEB now!


NORAD ID: 44039
Int'l Code: 2014-055BZ
Perigee: 7,853.7 km
Apogee: 34,589.0 km
Inclination: 20.7 °
Period: 760.2 minutes
Semi major axis: 27592 km
RCS: Unknown
Launch date: September 17, 2014
Source: United States (US)
Launch site: ()

Note: This is SATELLITE DEBRIS
Your satellite tracking list
Your tracking list is empty




NASA's NSSDC Master Catalog

Two Line Element Set (TLE):
1 44039U 14055BZ  23157.61130043 -.00000075  00000-0  00000-0 0  9994
2 44039  20.6668 241.7707 4844699 356.1889   1.2754  1.89417267 31516
Source of the keplerian elements: AFSPC